Home   Weather   Grand Prairie   Past weeks

Flag for USA Past Weather in Grand Prairie, Texas, USA — Yesterday and Last 2 Weeks

Now
61 °F

Clear.


Feels Like: 61 °F
Forecast: 57 / 78 °F
Wind: No wind

Location: Grand Prairie Municipal Airport

Current Time: Sep 30, 2016 at 5:07:35 AM

Latest Report: Sep 30, 2016 at 4:35 AM


Visibility: 10 mi

Pressure: 30.21 "Hg

Humidity: 73%

Dew Point: 52 °F

Location of Grand PrairieLocation

Past Weather in Grand Prairie — Graph

°F

Grand Prairie Temperature Yesterday

Maximum temperature yesterday: 77 °F (at 3:50 PM)
Minimum temperature yesterday: 61 °F (at 6:50 AM)
Average temperature yesterday: 69 °F

High & Low Weather Summary for the Past Weeks

 TemperatureHumidityPressure
High99 °F (Sep 19, 3:50 PM)100% (Sep 25, 6:50 AM)30.32 "Hg (Sep 25, 6:50 AM)
Low56 °F (Sep 28, 4:55 AM)22% (Sep 28, 4:50 PM)29.89 "Hg (Sep 16, 3:50 PM)
Average78 °F64%30.04 "Hg
* Reported Sep 15 3:00 AM — Sep 30 3:55 AM, Grand Prairie, Weather by CustomWeather, © 2016

Note: Actual official high and low records may vary slightly from our data, if they occured in-between our weather recording intervals... More about our weather records

Advertising

Grand Prairie Weather History for the Previous 24 Hours

Scroll right to see more
 ConditionsComfort  
Time TempWeatherWind HumidityBarometerVisibility
3:55 AM
Fri, Sep 30
62 °FClear.No wind71%30.21 "Hg10 mi
3:35 AM62 °FClear.No wind69%30.22 "Hg10 mi
3:15 AM63 °FClear.No wind70%30.22 "Hg10 mi
2:55 AM62 °FClear.3 mph71%30.22 "Hg10 mi
2:15 AM61 °FClear.5 mph74%30.23 "Hg10 mi
1:55 AM63 °FClear.5 mph69%30.23 "Hg10 mi
1:35 AM63 °FClear.3 mph69%30.23 "Hg10 mi
1:15 AM65 °FClear.No wind64%30.24 "Hg10 mi
12:55 AM65 °FClear.3 mph61%30.24 "Hg10 mi
12:35 AM66 °FClear.3 mph59%30.25 "Hg10 mi
12:15 AM65 °FClear.3 mph59%30.26 "Hg10 mi
11:55 PM
Thu, Sep 29
67 °FClear.3 mph54%30.25 "Hg10 mi
11:35 PM66 °FClear.5 mph55%30.26 "Hg10 mi
11:15 PM67 °FClear.3 mph53%30.26 "Hg10 mi
10:55 PM66 °FClear.3 mph54%30.26 "Hg10 mi
10:15 PM67 °FClear.5 mph53%30.25 "Hg10 mi
9:55 PM67 °FClear.6 mph53%30.25 "Hg10 mi
9:35 PM67 °FClear.6 mph52%30.24 "Hg10 mi
9:15 PM67 °FClear.5 mph52%30.24 "Hg10 mi
8:55 PM67 °FClear.5 mph51%30.23 "Hg10 mi
8:35 PM68 °FClear.6 mph50%30.23 "Hg10 mi
8:15 PM69 °FClear.7 mph49%30.23 "Hg10 mi
6:50 PM73 °FSunny.8 mph38%30.22 "Hg10 mi
5:50 PM75 °FSunny.12 mph36%30.22 "Hg10 mi
4:50 PM75 °FSunny.13 mph34%30.22 "Hg10 mi
3:50 PM77 °FSunny.13 mph34%30.23 "Hg10 mi
2:50 PM75 °FSunny.14 mph36%30.25 "Hg10 mi
1:50 PM75 °FSunny.9 mph36%30.28 "Hg10 mi
12:50 PM73 °FSunny.9 mph41%30.30 "Hg10 mi
11:50 AM70 °FSunny.12 mph46%30.31 "Hg10 mi
10:50 AM70 °FSunny.12 mph46%30.32 "Hg10 mi
9:50 AM66 °FSunny.14 mph56%30.31 "Hg10 mi
8:50 AM61 °FSunny.14 mph63%30.27 "Hg10 mi
7:50 AM61 °FSunny.9 mph68%30.24 "Hg10 mi
6:50 AM61 °FClear.9 mph63%30.23 "Hg10 mi
6:35 AM62 °FClear.10 mph63%30.22 "Hg10 mi
6:15 AM63 °FClear.9 mph60%30.21 "Hg10 mi
5:55 AM64 °FClear.10 mph59%30.21 "Hg10 mi
5:15 AM64 °FClear.12 mph58%30.19 "Hg10 mi
Weather by CustomWeather, © 2016

See weather overviewHow to use our weather pages